Location: ?????
(55.6500°N, 37.2500°E)
Time: 16:11:44
(UTC+00:00)

USA 238 DEB - Pass Details

Date: 19 May 2025
Orbit: 899 x 1311 km, 63.4° (Epoch: 11 June)

Event Time Altitude Azimuth Distance (km) Brightness Sun altitude
Rises 23:06:08 0° 307° (NW) 3,869 6.8 -11.5°
Reaches altitude 10° 23:08:40 10° 308° (NW) 2,968 6.2 -11.4°
Maximum altitude 23:15:51 88° 38° (NE) 1,194 4.0 -11.0°
Drops below altitude 10° 23:23:43 10° 129° (SE) 3,242 6.1 -10.5°
Sets 23:26:36 0° 130° (SE) 4,244 6.7 -10.3°
